Regional Weather Roundup
Issued by NWS Little Rock, AR

Home | Current Version | Previous Version | Graphics & Text | Print | Product List | Glossary On
Versions: 1 2 3 4 5 6 7 8 9 10 11 12 13 14 15 16 17 18 19 20 21 22 23 24 25 26 27 28 29 30 31 32 33 34 35 36 37 38 39 40 41 42 43 44 45 46 47 48 49 50
918
ASUS44 KLZK 161605
RWRLZK

WEATHER ROUNDUP FOR ARKANSAS
NATIONAL WEATHER SERVICE LITTLE ROCK AR
1000 AM CST MON JAN 16 2017

NOTE: "FAIR" INDICATES FEW OR NO CLOUDS BELOW 12,000 FEET WITH NO
SIGNIFICANT WEATHER AND/OR OBSTRUCTIONS TO VISIBILITY.

ARZ001-003-010-029-161700-
NORTHWEST ARKANSAS

CITY           SKY/WX    TMP DP  RH WIND       PRES   REMARKS
FAYETTEVILLE   CLOUDY    57  55  93 S10       29.94S
FORT SMITH     CLOUDY    54  52  93 NE8       29.95R FOG
HARRISON       CLOUDY    52  52 100 SE12      29.97F FOG
BENTONVILLE    CLOUDY   N/A N/A N/A S14G22    29.93S
ROGERS         CLOUDY    57  55  93 S7        29.94S
SILOAM SPGS    CLOUDY    57  54  88 S14       29.92S
HIGHFILL       CLOUDY    58  56  93 S13       29.92F
SPRINGDALE     CLOUDY    57  57 100 S8G16     29.95S
$$

ARZ004-005-016-161700-
NORTH CENTRAL ARKANSAS

CITY           SKY/WX    TMP DP  RH WIND       PRES   REMARKS
BATESVILLE     CLOUDY    48  46  93 SE8       30.08F
FLIPPIN        CLOUDY    46  43  87 SE6       30.00F VSB 1
MTN HOME       FOG       48  48 100 SE7       30.01F VSB 1/2
$$

ARZ040-041-161700-
WEST CENTRAL ARKANSAS

CITY           SKY/WX    TMP DP  RH WIND       PRES   REMARKS
MENA           CLOUDY    64  63  94 SW7       29.97R
MOUNT IDA      RAIN      61  59  93 VRB7      29.96R FOG
$$

ARZ009-017-025-026-028-161700-
NORTHEAST ARKANSAS

CITY           SKY/WX    TMP DP  RH WIND       PRES   REMARKS
CORNING        LGT RAIN  48  48 100 E6        30.11S
JONESBORO      LGT RAIN  50  50 100 E3        30.11S
NEWPORT        CLOUDY    53  53 100 SE12      30.09
WALNUT RIDGE   CLOUDY    50  46  87 E6        30.09S
BLYTHEVILLE    CLOUDY    59  55  87 S10       30.14S
$$

ARZ022-023-033-042-044-161700-
CENTRAL ARKANSAS

CITY           SKY/WX    TMP DP  RH WIND       PRES   REMARKS
LITTLE ROCK    FOG       55  55 100 SE10      30.05R VSB 1
N LITTLE ROCK    N/A     55  54  97 S9G21     30.07R
JACKSONVILLE   CLOUDY    57  57 100 SE8       30.05R FOG
SEARCY         LGT RAIN  53  53 100 E6        30.08F FOG
HOT SPRINGS    CLOUDY    60  60 100 SE8       30.02S
RUSSELLVILLE   CLOUDY    52  52 100 E8        30.00S FOG
CLINTON        FOG       52  52 100 E5        30.04S VSB 3/4
$$

ARZ036-161700-
EAST ARKANSAS

CITY           SKY/WX    TMP DP  RH WIND       PRES   REMARKS
WEST MEMPHIS   CLOUDY    60  59  96 S15       30.12F
$$

ARZ050-053-066-070-073-161700-
SOUTHWEST ARKANSAS

CITY           SKY/WX    TMP DP  RH WIND       PRES   REMARKS
ARKADELPHIA    CLOUDY    63  61  93 S9        30.03R
CAMDEN         CLOUDY    63  59  88 SE12      30.04R
TEXARKANA      CLOUDY    64  64 100 S14G22    30.00R
EL DORADO      CLOUDY    63  62  97 SE12      30.05S
DE QUEEN       CLOUDY    64  64 100 S12       29.96R
$$

ARZ056-057-069-161700-
SOUTHEAST ARKANSAS

CITY           SKY/WX    TMP DP  RH WIND       PRES   REMARKS
PINE BLUFF     LGT RAIN  59  58  96 SE16      30.06F
STUTTGART      CLOUDY    57  54  88 SE16      30.09S
MONTICELLO     LGT RAIN  62  60  93 SE10      30.09F

$$






USA.gov is the U.S. government's official web portal to all federal, state and local government web resources and services.